Regional Weather Roundup
Issued by NWS

Home | Current Version | Previous Version | Graphics & Text | Print | Product List | Glossary On
Versions: 1 2 3 4 5 6 7 8 9 10 11 12 13 14 15 16 17 18 19 20 21 22 23 24 25 26 27 28 29 30 31 32 33 34 35 36 37 38 39 40 41 42 43 44 45 46 47 48 49 50
551
ASUS43 KMPX 280210
RWRMN
WEATHER ROUNDUP FOR MINNESOTA
NATIONAL WEATHER SERVICE TWIN CITIES/CHANHASSEN MN
900 PM CDT THU APR 27 2017


NOTE: "FAIR" INDICATES FEW OR NO CLOUDS BELOW 12,000 FEET WITH NO
SIGNIFICANT WEATHER AND/OR OBSTRUCTIONS TO VISIBILITY. N/A MEANS
CURRENT SKY AND/OR WEATHER CONDITIONS ARE NOT AVAILABLE.

MNZ060>063-068>070-280300-
   Twin Cities Metro

CITY           SKY/WX    TMP DP  RH WIND       PRES   REMARKS
TWIN CITIES    CLOUDY    34  23  64 NW9       29.74R WCI  27
ST PAUL        CLOUDY    34  25  69 W8        29.75R WCI  27
CRYSTAL        CLOUDY    34  21  59 W9        29.73R WCI  27
LAKEVILLE      CLOUDY    32  25  74 NW16      29.74R WCI  21
EDEN PRAIRIE   CLOUDY    36  23  59 W12       29.73R
SOUTH ST PAUL  CLOUDY    35  24  64 W7        29.74R WCI  29
LAKE ELMO      CLOUDY    32  25  74 W6        29.74R WCI  26
$$
MNZ001>005-007-008-013>017-022>024-027-028-280300-
   Northwest Minnesota

CITY           SKY/WX    TMP DP  RH WIND       PRES   REMARKS
BEMIDJI        CLOUDY    28  21  76 W8        29.66R WCI  19
HALLOCK        PTCLDY    34  27  75 NE15      29.76R WCI  24
ROSEAU         FLURRIES  30  25  80 N7        29.71R WCI  23
WARROAD        LGT SNOW  28  25  86 N8        29.70R WCI  20
THIEF RVR FALL CLOUDY    30  28  93 N8        29.73R WCI  23
CROOKSTON      CLOUDY    36  28  75 NW5       29.75R
FOSSTON        CLOUDY    28  23  80 NW7       29.71R WCI  21
DETROIT LAKES  CLOUDY    32  28  86 NW6       29.72R WCI  26
MOORHEAD       CLOUDY    36  30  80 CALM      29.74R
PARK RAPIDS    CLOUDY    30  20  66 NW9       29.67R WCI  22
MAHNOMEN       CLOUDY    31  26  80 CALM      29.71R
$$
MNZ006-009>011-018-025>026-280300-
   North Central Minnesota

CITY           SKY/WX    TMP DP  RH WIND       PRES   REMARKS
BAUDETTE       FLURRIES  28  23  81 N13       29.65R WCI  17
FLAG ISLAND    LGT SNOW  30  25  80 N15G24    29.67R WCI  19
INTL FALLS     CLOUDY    28  20  71 NW8       29.61R WCI  20
WASKISH        CLOUDY    27  25  93 NW9       29.66R WCI  17
BIG FORK       MIX PCPN  27  21  80 NW5       29.63R WCI  21
LONGVILLE      CLOUDY    30  23  74 NW8       29.65R WCI  23
GRAND RAPIDS   CLOUDY    27  21  78 NW14      29.65R WCI  16
CRANE LAKE     LGT SNOW  27  21  80 NW6       29.61R WCI  20
ORR            CLOUDY    27  19  74 NW10G17   29.58R WCI  17
COOK           CLOUDY    27  21  80 W7        29.60R WCI  19
WALKER         CLOUDY    28  22  76 W8        29.66R WCI  20
$$
MNZ012-019>021-037-280300-
   Northeast Minnesota

CITY           SKY/WX    TMP DP  RH WIND       PRES   REMARKS
DULUTH         CLOUDY    29  20  69 W14       29.61R WCI  18
ELY            CLOUDY    25  19  80 NW6       29.57R WCI  18
HIBBING        CLOUDY    26  18  71 W6        29.61R WCI  19
EVELETH        CLOUDY    28  18  68 W8        29.61R WCI  19
DULUTH HARBOR  CLOUDY    34  25  69 W12       29.65R WCI  25
TWO HARBORS    CLOUDY    30  25  80 W8        29.59R WCI  23
SILVER BAY     CLOUDY    28  25  86 CALM      29.58R
GRAND MARAIS     N/A     28  23  81 W6        29.58R WCI  22
G MARAIS ARPRT CLOUDY    21  16  79 CALM      29.51R
$$
MNZ029>031-032-039>041-046>048-054>057-064-280300-
   West Central Minnesota

CITY           SKY/WX    TMP DP  RH WIND       PRES   REMARKS
FERGUS FALLS   CLOUDY    36  28  75 CALM      29.73R
WHEATON        CLOUDY    37  28  70 CALM      29.77R
MORRIS         CLOUDY    36  28  75 W6        29.73R
ALEXANDRIA     CLOUDY    33  25  72 NW7       29.72R WCI  27
ELBOW LAKE     CLOUDY    35  29  79 NW5       29.74R WCI  31
WADENA         CLOUDY    30  27  86 NW8       29.70R WCI  23
GLENWOOD       CLOUDY    32  27  80 W6        29.73R WCI  26
APPLETON       CLOUDY    36  28  75 CALM      29.76R
BENSON         CLOUDY    36  27  69 W3        29.76S
ORTONVILLE     CLOUDY    37  28  70 CALM      29.76R
MADISON        CLOUDY    39  30  70 CALM      29.77R
WILLMAR        CLOUDY    34  28  80 W5        29.77R WCI  30
$$
MNZ033>034-036-042>043-049>051-058-059-280300-
   Central Minnesota

CITY           SKY/WX    TMP DP  RH WIND       PRES   REMARKS
ST CLOUD       CLOUDY    33  25  72 W9        29.72R WCI  25
SAUK CENTRE    CLOUDY    32  25  76 W6        29.72R WCI  26
PAYNESVILLE    CLOUDY    33  26  78 W8        29.74R WCI  25
AITKIN         CLOUDY    32  21  64 W3        29.65R
PINE RIVER     CLOUDY    28  23  80 W5        29.71R WCI  23
BRAINERD       CLOUDY    31  22  69 NW13      29.68R WCI  21
STAPLES        CLOUDY    28  25  86 NW12      29.69R WCI  18
LONG PRAIRIE   CLOUDY    32  25  74 W7        29.71R WCI  26
LITTLE FALLS   CLOUDY    32  25  74 W8        29.71R WCI  25
LITCHFIELD     CLOUDY    36  27  69 NW10G17   29.75R
BUFFALO        CLOUDY    34  25  69 W9        29.74R WCI  26
MAPLE LAKE     CLOUDY    34  27  75 W9        29.74R WCI  27
HUTCHINSON     CLOUDY    35  29  79 W12       29.76R WCI  26
$$
MNZ037-044-045-052-053-280300-
   East Central Minnesota

CITY           SKY/WX    TMP DP  RH WIND       PRES   REMARKS
PRINCETON      CLOUDY    34  25  69 W6        29.72R WCI  29
MORA           CLOUDY    32  25  74 W6        29.71R WCI  26
CAMBRIDGE      CLOUDY    34  23  64 W8        29.70R WCI  27
RUSH CITY      CLOUDY    31  24  74 W9G16     29.71R WCI  23
MOOSE LAKE     CLOUDY    32  23  69 W9        29.64R WCI  24
HINCKLEY       CLOUDY    32  28  86 W7        29.69R WCI  26
CLOQUET        CLOUDY    28  19  69 W6        29.63R WCI  22
MCGREGOR       CLOUDY    30  23  74 W7        29.66R WCI  23
$$
MNZ071>073-080-081-089-090-097-098-280300-
   Southwest Minnesota

CITY           SKY/WX    TMP DP  RH WIND       PRES   REMARKS
MONTEVIDEO     CLOUDY    36  28  75 CALM      29.77R
GRANITE FALLS  CLOUDY    37  30  75 NW7       29.80R
CANBY          CLOUDY    38  31  73 CALM      29.79R
MARSHALL       CLOUDY    36  29  75 N5        29.80R
REDWOOD FALLS  CLOUDY    36  26  67 NW10      29.78R
OLIVIA         CLOUDY    34  30  86 NW8       29.77R WCI  27
PIPESTONE      CLEAR     37  28  70 NE5       29.76R
WINDOM         CLEAR     30  27  86 N7        29.78R WCI  23
WORTHINGTON    CLEAR     34  30  85 NE7       29.78R WCI  28
JACKSON        CLEAR     32  28  86 N6        29.78R WCI  26
TRACY          CLEAR     34  30  83 N5        29.79R WCI  30
SLAYTON        CLEAR     34  28  80 N5        29.79R WCI  30
$$
MNZ065>067-074>077-082>085-091>093-280300-
   South Central Minnesota

CITY           SKY/WX    TMP DP  RH WIND       PRES   REMARKS
MANKATO        CLOUDY    34  26  72 W10       29.78R WCI  26
NEW ULM        CLOUDY    34  27  75 NW9       29.79R WCI  26
ST JAMES       CLOUDY    36  28  75 NW9       29.81R
FAIRMONT       CLEAR     34  28  79 N12       29.79R WCI  25
GLENCOE        CLOUDY    35  29  79 NW12      29.75R WCI  27
FARIBAULT      CLOUDY    34  27  75 W10       29.76R WCI  26
OWATONNA       CLOUDY    34  27  75 W16       29.76R WCI  23
WASECA         CLOUDY    32  28  86 W14       29.79R WCI  22
ALBERT LEA     CLOUDY    34  27  75 NW12G18   29.77R WCI  25
$$
MNZ078>079-086>088-094>096-280300-
   Southeast Minnesota

CITY           SKY/WX    TMP DP  RH WIND       PRES   REMARKS
ROCHESTER      CLOUDY    33  27  78 W15       29.74R WCI  23
RED WING       CLOUDY    36  25  64 NW10      29.73R
STANTON        CLOUDY    35  27  73 NW10      29.74R WCI  27
DODGE CENTER   CLOUDY    34  27  75 W13       29.74R WCI  25
WINONA         CLOUDY    36  28  75 W9        29.75R
AUSTIN         CLOUDY    36  27  69 W8        29.76R
PRESTON        CLOUDY    33  27  79 W15       29.75R WCI  23
$$
ABBREVIATIONS USED IN REMARKS
   TC - TEMPERATURES IN CELSIUS
  WCI - WIND CHILL INDEX
   HX - HEAT INDEX
  VSB - VISIBILITY
$$




USA.gov is the U.S. government's official web portal to all federal, state and local government web resources and services.